TimeEST,TemperatureF,Dew PointF,Humidity,Sea Level PressureIn,VisibilityMPH,Wind Direction,Wind SpeedMPH,Gust SpeedMPH,PrecipitationIn,Events,Conditions,WindDirDegrees,DateUTC
12:58 AM,73.4,69.8,88,30.06,10.0,SE,8.1,-,N/A,,Clear,130,2013-02-23 05:58:00
1:58 AM,73.4,69.8,88,30.04,10.0,SE,11.5,-,N/A,,Clear,130,2013-02-23 06:58:00
2:58 AM,73.4,69.8,88,30.03,10.0,SE,8.1,-,N/A,,Clear,130,2013-02-23 07:58:00
3:58 AM,73.4,69.8,88,30.01,10.0,SE,8.1,-,N/A,,Clear,140,2013-02-23 08:58:00
4:58 AM,73.4,68.0,83,30.01,10.0,SE,9.2,-,N/A,,Clear,140,2013-02-23 09:58:00
5:58 AM,71.6,68.0,88,30.00,10.0,SE,8.1,-,N/A,,Clear,140,2013-02-23 10:58:00
6:58 AM,73.4,68.0,83,30.01,10.0,SE,6.9,-,N/A,,Clear,140,2013-02-23 11:58:00
7:58 AM,75.2,69.8,83,30.03,10.0,SE,8.1,-,N/A,,Clear,140,2013-02-23 12:58:00
8:58 AM,78.8,71.6,78,30.04,10.0,SSE,13.8,-,N/A,,Partly Cloudy,150,2013-02-23 13:58:00
9:58 AM,78.8,69.8,74,30.05,10.0,SSE,15.0,19.6,N/A,,Clear,150,2013-02-23 14:58:00
10:58 AM,80.6,69.8,70,30.05,10.0,SE,17.3,21.9,N/A,,Partly Cloudy,140,2013-02-23 15:58:00
11:58 AM,80.6,71.6,74,30.04,10.0,SSE,10.4,19.6,N/A,,Partly Cloudy,150,2013-02-23 16:58:00
12:58 PM,80.6,71.6,74,30.01,10.0,SE,12.7,-,N/A,,Partly Cloudy,140,2013-02-23 17:58:00
1:58 PM,80.6,71.6,74,29.99,10.0,SSE,11.5,-,N/A,,Scattered Clouds,150,2013-02-23 18:58:00
2:58 PM,82.4,71.6,70,29.97,10.0,South,11.5,19.6,N/A,,Partly Cloudy,170,2013-02-23 19:58:00
3:58 PM,80.6,71.6,74,29.96,10.0,SSE,10.4,-,N/A,,Clear,160,2013-02-23 20:58:00
4:58 PM,80.6,71.6,74,29.96,10.0,SSE,8.1,-,N/A,,Partly Cloudy,160,2013-02-23 21:58:00
5:58 PM,77.0,71.6,83,29.97,10.0,SSE,10.4,-,N/A,,Clear,160,2013-02-23 22:58:00
6:58 PM,75.2,71.6,89,29.97,10.0,South,8.1,-,N/A,,Clear,170,2013-02-23 23:58:00
7:58 PM,73.4,71.6,94,29.98,10.0,South,4.6,-,N/A,,Clear,180,2013-02-24 00:58:00
8:58 PM,71.6,69.8,94,29.99,10.0,South,4.6,-,N/A,,Clear,190,2013-02-24 01:58:00
9:13 PM,71.6,71.6,100,29.99,10.0,SSE,2.3,-,N/A,,Clear,160,2013-02-24 02:13:00
9:18 PM,71.6,71.6,100,29.99,9.0,South,2.3,-,N/A,,Clear,170,2013-02-24 02:18:00
9:43 PM,69.8,69.8,100,29.99,2.5,SSW,3.5,-,N/A,,Clear,200,2013-02-24 02:43:00
9:48 PM,71.6,69.8,94,29.99,3.0,South,2.3,-,N/A,,Clear,180,2013-02-24 02:48:00
9:58 PM,71.6,71.6,100,30.00,4.0,South,2.3,-,N/A,,Clear,170,2013-02-24 02:58:00
10:08 PM,71.6,71.6,100,29.99,2.5,South,2.3,-,N/A,,Clear,190,2013-02-24 03:08:00
10:13 PM,71.6,69.8,94,29.99,1.8,SSW,2.3,-,N/A,,Clear,200,2013-02-24 03:13:00
10:14 PM,71.6,69.8,94,29.99,6.0,SSW,2.3,-,N/A,,Scattered Clouds,200,2013-02-24 03:14:00
10:38 PM,71.6,71.6,100,29.99,6.0,South,3.5,-,N/A,,Partly Cloudy,190,2013-02-24 03:38:00
10:58 PM,71.6,69.8,94,30.00,6.0,South,3.5,-,N/A,,Scattered Clouds,190,2013-02-24 03:58:00
11:46 PM,69.8,69.8,100,29.99,2.0,SSW,2.3,-,N/A,,Clear,200,2013-02-24 04:46:00
11:58 PM,71.6,71.6,100,30.00,2.0,SSW,2.3,-,N/A,,Clear,200,2013-02-24 04:58:00